Location: Poughquag
(41.6090°N, 73.6820°W)
Time: 11:28:52
(UTC-05:00)

N. Korean satellite - Visible Passes

Search period start: 17 January 2020 00:00
Search period end: 27 January 2020 00:00
Orbit: 454 x 508 km, 97.2° (Epoch: 17 January)

Date Brightness Start Highest point End Pass type
(mag) Time Alt. Az. Time Alt. Az. Time Alt. Az.
17 Jan 6.4 05:45:53 10° NNE 05:49:24 87° ESE 05:52:57 10° SSW visible
17 Jan 9.8 17:56:19 10° SW 17:58:16 14° W 18:00:12 10° WNW visible
18 Jan 8.0 05:20:35 10° NNE 05:23:54 38° E 05:27:14 10° SSE visible
18 Jan 8.8 17:29:35 10° SSW 17:32:38 29° W 17:35:41 10° NW visible
19 Jan 9.4 04:55:45 10° NE 04:58:17 18° E 05:00:51 10° SE visible
19 Jan 7.5 06:28:43 10° NNW 06:31:39 25° WNW 06:34:37 10° SW visible
20 Jan 6.6 06:02:49 10° N 06:06:17 53° WNW 06:09:46 10° SSW visible
21 Jan 6.9 05:37:17 10° NNE 05:40:49 67° ESE 05:44:22 10° S visible
21 Jan 9.6 17:47:10 10° SW 17:49:35 18° W 17:52:01 10° NW visible
22 Jan 8.5 05:12:06 10° NE 05:15:16 30° E 05:18:28 10° SSE visible
22 Jan 8.1 06:46:08 10° NNW 06:48:25 16° WNW 06:50:43 10° WSW visible
23 Jan 9.7 04:47:31 10° ENE 04:49:38 15° E 04:51:46 10° SE visible
23 Jan 7.2 06:19:54 10° N 06:23:06 32° WNW 06:26:20 10° SW visible
24 Jan 6.4 05:54:08 10° N 05:57:41 71° WNW 06:01:17 10° SSW visible
24 Jan 10.1 18:05:34 10° WSW 18:06:36 11° W 18:07:36 10° WNW visible
25 Jan 7.4 05:28:41 10° NNE 05:32:11 51° E 05:35:44 10° S visible
25 Jan 9.3 17:38:08 10° SSW 17:40:54 23° W 17:43:41 10° NW visible
26 Jan 9.0 05:03:38 10° NE 05:06:37 24° E 05:09:36 10° SSE visible
26 Jan 7.9 06:37:09 10° NNW 06:39:52 21° WNW 06:42:37 10° WSW visible
